Погода в Новокленском

Россия / Тамбовская область     53°12′08″N   40°14′09″E
темп.,
°C
ветер,
м/с
пор.,
м/с
влажн.,
%
обл.,
%
осадки,
мм/ч
давл.,
гПа
погр.,
м
27 июля, вт
вт2700:00+18з22595 0.0 102113
03:00+19з236223 0.0 102254
06:00+18з126999 0.1 102119
09:00+22з33665 0.8 1021382
12:00+28зсз344015 0.0 10201993
15:00+25зюз225175 0.0 101955
18:00+23с235192 0.0 101854
21:00+19ююз23768 1.2 101937
28 июля, ср
ср2800:00+18юз22725 0.0 101911
03:00+16з228370 0.0 101919
06:00+18з127880 0.0 101844
09:00+24юз23555 0.0 1018428
12:00+28юз233845 0.0 10161810
15:00+25юз4651100 0.3 1015444
18:00+23юв2357100 0.3 101383
21:00+20ссв3667100 0.3 1013198
29 июля, чт
чт2900:00+20вюв357265 0.1 101185
03:00+19ююз4117171 0.2 1010347
06:00+18юз49775 0.0 1009320
09:00+24з69645 0.0 1008959
12:00+28з794524 0.0 10082009
15:00+30зсз7936100 0.0 10072702
18:00+26зсз4846100 0.0 1007353
21:00+22зсз226098 0.0 100822
30 июля, пт
пт3000:00+20з22671 0.0 100811
03:00+21юз346432 0.0 100974
06:00+20зюз237399 0.1 100986
09:00+25зюз235596 0.1 1009465
12:00+30зюз34395 0.0 10081996
15:00+28ююз564354 0.0 1008755
18:00+29з23425 0.0 10071222
21:00+23ю22580 0.0 100817
31 июля, сб
сб3100:00+22ююз2268100 0.1 100826
03:00+22зюз2269100 0.1 100849
06:00+22з346992 0.0 1008135
09:00+25зсз345862 0.0 1008459
12:00+30з453159 0.0 10082613
15:00+31зюз55286 0.0 10072743
18:00+30з3630100 0.0 10072704
21:00+24юз334664 0.0 100837